This demonstration page uses our WeatherBlox Daily Observations layout. Learn more.

Left ArrowRight Arrow

39.29038, -76.61219

Hourly Observations for May 29, 2021

Temp ( °F °C ) Dew Point ( °F °C ) Humidity (%) Winds ( mph kmh ) Pressure ( in mb ) Visibility ( mi km ) Precip ( " mm )
12:54 am 00:54 Cloudy with Light Rain 56 13.3 52 11.1 87 87 NE 8 13 29.78 1009 8 13 0.00 0.00
1:54 am 01:54 Cloudy with Light Rain 55 12.8 51 10.6 87 87 NNE 9 15 29.78 1009 6 10 0.00 0.00
2:54 am 02:54 Cloudy with Light Rain 54 12.2 51 10.6 90 90 NNE 12 19 29.77 1008 6 10 0.01 0.25
3:54 am 03:54 Cloudy with Light Rain 53 11.7 50 10 89 89 NE 12 19 29.77 1008 5 8 0.01 0.25
4:38 am 04:38 Cloudy with Rain 53 11.7 50 10 89 89 NE 15 24 29.76 1008 2 2 0.08 2.03
4:54 am 04:54 Cloudy with Light Rain 53 11.7 50 10 89 89 NE 15 24 29.76 1008 2 2 0.19 4.83
5:12 am 05:12 Cloudy with Light Rain 52 11.1 50 10 93 93 NE 15 24 29.77 1008 3 5 0.01 0.25
5:54 am 05:54 Cloudy with Light Rain 53 11.7 50 10 89 89 NNE 7 11 29.80 1009 5 8 0.08 2.03
6:10 am 06:10 Cloudy with Light Rain 53 11.7 50 10 89 89 NE 13 20 29.81 1010 5 8 0.01 0.25
6:54 am 06:54 Cloudy with Light Rain 52 11.1 49 9.4 89 89 NE 10 17 29.84 1010 4 6 0.02 0.51
7:00 am 07:00 Cloudy with Rain 52 11.1 49 9.4 89 89 NE 12 19 29.84 1011 1 2 0.01 0.25
7:17 am 07:17 Cloudy with Light Rain 52 11.1 49 9.4 89 89 NE 12 19 29.85 1011 4 6 0.06 1.52
7:54 am 07:54 Cloudy with Light Rain 52 11.1 50 10 93 93 N 7 11 29.88 1012 4 6 0.07 1.78
7:59 am 07:59 Cloudy with Light Rain 52 11.1 49 9.4 89 89 NNE 9 15 29.88 1012 2 2 0.01 0.25
8:23 am 08:23 Cloudy with Light Rain 52 11.1 49 9.4 89 89 NNE 13 20 29.88 1012 4 6 0.04 1.02
8:54 am 08:54 Cloudy with Mist and Fog 52 11.1 49 9.4 89 89 NNE 10 17 29.89 1012 5 8 0.05 1.27
9:03 am 09:03 Cloudy with Light Rain 52 11.1 49 9.4 89 89 NNE 10 17 29.89 1012 5 8 0.00 0.00
9:54 am 09:54 Cloudy with Light Rain 52 11.1 49 9.4 89 89 NE 14 22 29.91 1013 4 6 0.00 0.00
10:14 am 10:14 Cloudy with Light Rain 52 11.1 49 9.4 89 89 NE 17 28 29.92 1013 2 3 0.00 0.00
10:16 am 10:16 Cloudy with Light Rain 52 11.1 49 9.4 89 89 NE 18 30 29.92 1013 2 2 0.00 0.00
10:29 am 10:29 Cloudy with Light Rain 52 11.1 48 8.9 86 86 NE 12 19 29.93 1014 2 3 0.00 0.00
10:54 am 10:54 Cloudy with Light Rain 52 11.1 49 9.4 89 89 NE 12 19 29.93 1014 3 5 0.00 0.00
11:21 am 11:21 Cloudy with Light Rain 53 11.7 49 9.4 86 86 NNE 10 17 29.95 1014 6 10 0.00 0.00
11:32 am 11:32 Cloudy with Light Rain 52 11.1 49 9.4 89 89 NE 15 24 29.95 1014 6 10 0.00 0.00
11:54 am 11:54 Cloudy with Light Rain 52 11.1 48 8.9 86 86 NE 14 22 29.96 1014 5 8 0.00 0.00
12:00 pm 12:00 Cloudy with Light Rain 52 11.1 48 8.9 86 86 NE 14 22 29.96 1015 3 4 0.00 0.00
12:28 pm 12:28 Cloudy with Light Rain 52 11.1 48 8.9 86 86 NE 16 26 29.96 1015 2 3 0.00 0.00
12:41 pm 12:41 Cloudy with Light Rain 52 11.1 48 8.9 86 86 NE 15 24 29.97 1015 3 5 0.00 0.00
12:54 pm 12:54 Cloudy with Light Rain 52 11.1 48 8.9 86 86 NNE 16 26 29.96 1015 3 4 0.00 0.00
1:00 pm 13:00 Cloudy with Light Rain 52 11.1 48 8.9 86 86 NNE 14 22 29.97 1015 3 5 0.00 0.00
1:54 pm 13:54 Cloudy 52 11.1 48 8.9 86 86 NE 13 20 29.96 1015 10 16 0.00 0.00
2:19 pm 14:19 Cloudy 53 11.7 48 8.9 83 83 NE 17 28 29.98 1015 10 16 N/A
2:54 pm 14:54 Cloudy 53 11.7 46 7.8 77 77 NE 16 26 29.98 1015 10 16 N/A
3:54 pm 15:54 Cloudy 53 11.7 47 8.3 80 80 NE 12 19 30.00 1016 10 16 0.00 0.00
4:54 pm 16:54 Cloudy with Light Rain 53 11.7 47 8.3 80 80 NE 16 26 30.01 1016 8 13 0.01 0.25
5:54 pm 17:54 Cloudy with Light Rain 52 11.1 47 8.3 83 83 NNE 10 17 30.06 1018 10 16 0.02 0.51
6:49 pm 18:49 Cloudy with Mist and Fog 52 11 48 9 88 88 NE 12 19 30.06 1018 3 5 0.00 0.00
6:54 pm 18:54 Cloudy with Mist and Fog 52 11.1 48 8.9 86 86 NE 13 20 30.06 1018 3 5 0.00 0.00
6:57 pm 18:57 Cloudy with Mist and Fog 51 10.6 48 8.9 89 89 NE 14 22 30.06 1018 2 3 N/A
7:21 pm 19:21 Cloudy with Light Rain 51 10.6 48 8.9 89 89 NE 15 24 30.06 1018 9 14 0.01 0.25
7:54 pm 19:54 Cloudy 51 10.6 47 8.3 86 86 NNE 9 15 30.08 1019 10 16 0.01 0.25
8:54 pm 20:54 Cloudy with Light Rain 51 10.6 47 8.3 86 86 NNE 15 24 30.08 1019 10 16 0.01 0.25
9:54 pm 21:54 Cloudy 51 10.6 46 7.8 83 83 NNE 10 17 30.09 1019 10 16 0.01 0.25
10:50 pm 22:50 Cloudy 52 11 46 8 82 82 NNE 10 17 30.11 1020 10 16 N/A
10:54 pm 22:54 Cloudy 51 10.6 46 7.8 83 83 NNE 12 19 30.11 1020 10 16 N/A
11:49 pm 23:49 Cloudy with Light Rain 52 11 46 8 82 82 NE 12 19 30.11 1020 8 13 0.00 0.00
11:54 pm 23:54 Cloudy with Light Rain 51 10.6 46 7.8 83 83 NNE 13 20 30.11 1020 6 10 0.00 0.00

Powered by AerisWeather